Regional Weather Roundup
Issued by NWS Albany, NY

Home | Current Version | Previous Version | Graphics & Text | Print | Product List | Glossary Off
Versions: 1 2 3 4 5 6 7 8 9 10 11 12 13 14 15 16 17 18 19 20 21 22 23 24 25 26 27 28

000
ASUS41 KALY 300910
RWRALY

NEW YORK STATE HOURLY WEATHER ROUNDUP
NATIONAL WEATHER SERVICE ALBANY NY
500 AM EDT FRI SEP 30 2016

NOTE: "FAIR" INDICATES FEW OR NO CLOUDS BELOW 12,000 FEET WITH NO
SIGNIFICANT WEATHER AND/OR NO OBSTRUCTIONS TO VISIBILITY.

NYZ032-033-038>043-046>054-057>066-NYZ062>081-082-084-301000-
EAST


CITY           SKY/WX    TMP DP  RH WIND       PRES   REMARKS
ALBANY         CLOUDY    55  43  63 CALM      30.44R
GLENS FALLS    CLOUDY    55  40  56 NE9       30.44F
POUGHKEEPSIE   MOCLDY    54  46  74 N9        30.38S
NEWBURGH       PTCLDY    55  48  76 NE12      30.38F
MONTGOMERY     CLOUDY    56  46  69 NE10      30.38R
WHITE PLAINS   MOCLDY    56  48  74 NE12G21   30.33S
ISLIP          CLOUDY    60  53  77 NE20G25   30.30F
NEW YORK CITY  CLOUDY    62  54  74 NE26G36   30.30S
CENTRAL PARK   CLOUDY    58  49  72 NE12G26   30.33S
$$

NYZ005>009-017-018-044>046-055-056-301000-
CENTRAL


CITY           SKY/WX    TMP DP  RH WIND       PRES   REMARKS
FULTON         CLOUDY    58  42  55 VRB6      30.37R
SYRACUSE       MOCLDY    58  45  60 E6        30.36R
ROME           MOCLDY    55  45  68 E12       30.41R
ELMIRA         LGT RAIN  55  46  71 NE7       30.32R
BINGHAMTON     LGT RAIN  49  45  86 E6        30.33R
MONTICELLO     CLOUDY    50  41  71 E16G26    30.36S
$$

NYZ026>034-041>043-087-301000-
NORTH


CITY           SKY/WX    TMP DP  RH WIND       PRES   REMARKS
WATERTOWN      CLOUDY    49  46  90 CALM      30.40R
FORT DRUM      NOT AVBL
OGDENSBURG     FAIR      53  47  79 E6        30.42F
MASSENA        PTCLDY    53  46  77 NE3       30.45S
SARANAC LAKE   PTCLDY    45  42  89 CALM      30.42S
PLATTSBURGH    CLOUDY    50  46  86 CALM      30.46S
$$

NYZ001>004-010>016-019>021-085-301000-
WEST


CITY           SKY/WX    TMP DP  RH WIND       PRES   REMARKS
NIAGARA FALLS  CLOUDY    60  48  64 E10       30.29R
BUFFALO        CLOUDY    57  48  72 E13       30.29R
DUNKIRK        CLOUDY    58  52  80 NE9       30.25S
JAMESTOWN      CLOUDY    54  48  82 E5        30.25S
WELLSVILLE     CLOUDY    52  47  83 E8G17     30.30S
ROCHESTER      CLOUDY    58  49  72 E9        30.34R
PENN YAN       CLOUDY    56  52  86 CALM      30.34S
$$

             KEY
       WCI = WIND CHILL INDEX
       VSB = VISIBILITY
       HX  = HEAT INDEX
$$




USA.gov is the U.S. government's official web portal to all federal, state and local government web resources and services.